星链-4290 (STARLINK-4290 )

导读

STARLINK-4290是美国太空探索技术公司(SpaceX)星链计划中的卫星,于2022年7月7日发射升空,属于星链星座的组网卫星,旨在为全球提供低延迟、高速率的宽带互联网服务。该卫星运行在近地轨道,是星链项目批量生产发射的卫星之一,助力实现全球覆盖的卫星互联网组网目标。

基本信息
目录编号:
53006
目录名称:
STARLINK-4290
国际标识:
2022-076W
轨道中心:
EARTH
卫星名称:
星链-4290
卫星全名:
星链-4290 (STARLINK-4290 )
卫星状态:
在轨 (已飞行1520 天)
发射日期:
2022-07-07 UTC
国别 :
美国 (US)
星等 :
--
轨道信息
数据来源 国际轨道数据
星历时间: 2026-09-03T16:52:32+0800
20小时前
查看轨道信息
半长轴: 6837.879km
偏心率: 0.0001307
轨道倾角: 53.161°
近地点辐角 67.885°
升交点赤经 4.500°
平近点角 292.229°
近地点: 458.848km
远地点: 460.636km
周期: 93.787分钟
每日圈数: 15.353971
详细信息
固有亮度:
5
最大亮度:
2.5
卫星平台:
Starlink v1.5
覆盖范围:
全球
运营商:
太空探索技术公司
运营商所在国:
美国
制造商(研发单位):
太空探索技术公司
制造商所在国:
美国
使用方式:
暂无
卫星简介
星链(Starlink)计划是由太空探索技术公司(SpaceX)提出的一个巨型低轨卫星互联网星座项目,计划在2019年至2024年间在太空搭建由约1.2万颗卫星组成的“星链”网络,其中1584颗将部署在地球上空550千米处的近地轨道,并从2020年开始工作。该卫星仍在工作。
2D轨道图
3D轨道图
轨道高度分析图
轨道倾角分析图
轨道综合分析图
查看轨道综合分析图